| time (UTC) | temp C | wind direction | speed KPH | gust KPH | rain 1hr cm | rain 24hr cm | rain mn cm | humidity % | barometer mb |
| 20260505195102 | 10 | 0 | 0.0 | 0.0 | 0.15 | 0.46 | 0.46 | 10 | 1006.4 |
| 20260505193105 | 10 | 0 | 0.0 | 0.0 | 0.15 | 0.41 | 0.41 | 10 | 1006.3 |
| 20260505192106 | 10 | 0 | 0.0 | 0.0 | 0.15 | 0.38 | 0.38 | 10 | 1006.2 |
| 20260505190107 | 10 | 0 | 0.0 | 0.0 | 0.20 | 0.33 | 0.33 | 10 | 1006.2 |
| 20260505185106 | 10 | 0 | 0.0 | 0.0 | 0.18 | 0.33 | 0.33 | 10 | 1006.2 |
| 20260505181104 | 10 | 0 | 0.0 | 0.0 | 0.10 | 0.23 | 0.23 | 10 | 1006.2 |
| 20260505170101 | 10 | 0 | 0.0 | 0.0 | 0.00 | 0.15 | 0.15 | 10 | 1006.3 |
| 20260505165103 | 10 | 0 | 0.0 | 0.0 | 0.00 | 0.15 | 0.15 | 10 | 1006.4 |
| 20260505163101 | 10 | 0 | 0.0 | 0.0 | 0.00 | 0.23 | 0.15 | 10 | 1006.3 |
| 20260505153057 | 10 | 0 | 0.0 | 0.0 | 0.00 | 0.46 | 0.15 | 10 | 1006.6 |
| 20260505140106 | 10 | 0 | 0.0 | 0.0 | 0.00 | 0.53 | 0.15 | 10 | 1006.9 |
| 20260505124056 | 10 | 0 | 0.0 | 0.0 | 0.00 | 0.53 | 0.15 | 10 | 1007.2 |
| 20260505122055 | 11 | 0 | 0.0 | 0.0 | 0.00 | 0.53 | 0.15 | 10 | 1007.2 |
| 20260505111100 | 11 | 0 | 0.0 | 0.0 | 0.05 | 0.53 | 0.15 | 10 | 1007.6 |
| 20260505101100 | 11 | 0 | 0.0 | 0.0 | 0.13 | 0.53 | 0.15 | 10 | 1007.7 |
| 20260505092056 | 11 | 0 | 0.0 | 0.0 | 0.08 | 0.51 | 0.10 | 10 | 1007.8 |
| 20260505074059 | 11 | 0 | 0.0 | 0.0 | 0.00 | 0.43 | 0.03 | 10 | 1007.8 |
| 20260505071059 | 11 | 0 | 0.0 | 0.0 | 0.00 | 0.43 | 0.03 | 10 | 1007.8 |
| 20260505065058 | 11 | 0 | 0.0 | 0.0 | 0.00 | 0.43 | 0.03 | 10 | 1007.9 |
| 20260505060057 | 11 | 0 | 0.0 | 0.0 | 0.00 | 0.43 | 0.03 | 10 | 1007.9 |
| 20260505054057 | 11 | 0 | 0.0 | 0.0 | 0.03 | 0.43 | 0.03 | 10 | 1008.0 |
| 20260505053055 | 11 | 0 | 0.0 | 0.0 | 0.03 | 0.43 | 0.03 | 10 | 1008.1 |
| 20260505051057 | 11 | 0 | 0.0 | 0.0 | 0.03 | 0.43 | 0.03 | 10 | 1008.0 |
| 20260505024055 | 10 | 0 | 0.0 | 0.0 | 0.00 | 0.41 | 0.00 | 10 | 1008.7 |
| 20260505023056 | 10 | 0 | 0.0 | 0.0 | 0.00 | 0.41 | 0.00 | 10 | 1008.7 |
| 20260505020057 | 10 | 0 | 0.0 | 0.0 | 0.00 | 0.41 | 0.00 | 10 | 1008.8 |
| 20260505013038 | 10 | 0 | 0.0 | 0.0 | 0.00 | 0.41 | 0.00 | 10 | 1008.7 |
| 20260505010056 | 10 | 0 | 0.0 | 0.0 | 0.00 | 0.41 | 0.00 | 10 | 1008.9 |
| 20260505005056 | 10 | 0 | 0.0 | 0.0 | 0.00 | 0.41 | 0.00 | 10 | 1009.1 |
| 20260505003022 | 10 | 0 | 0.0 | 0.0 | 0.00 | 0.41 | 0.00 | 10 | 1009.2 |
| 20260505001056 | 10 | 0 | 0.0 | 0.0 | 0.00 | 0.41 | 0.00 | 10 | 1009.4 |
| 20260505000100 | 10 | 0 | 0.0 | 0.0 | 0.00 | 0.41 | 0.00 | 10 | 1009.4 |
| 20260504224104 | 11 | 0 | 0.0 | 0.0 | 0.00 | 0.41 | 0.00 | 10 | 1009.9 |
| 20260504223101 | 11 | 0 | 0.0 | 0.0 | 0.00 | 0.41 | 0.00 | 10 | 1009.9 |
| 20260504213113 | 11 | 0 | 0.0 | 0.0 | 0.00 | 0.41 | 0.41 | 99 | 1010.4 |
| 20260504204113 | 12 | 0 | 0.0 | 0.0 | 0.00 | 0.41 | 0.41 | 98 | 1010.6 |
| 20260504203106 | 12 | 0 | 0.0 | 0.0 | 0.00 | 0.41 | 0.41 | 98 | 1010.6 |
| 20260504202118 | 12 | 0 | 0.0 | 0.0 | 0.00 | 0.41 | 0.41 | 98 | 1010.7 |